| time (UTC) | temp F | wind direction | speed knots | gust knots | rain 1hr in | rain 24hr in | rain mn in | humidity % | barometer mb |
| 20260506121516 | 67 | 351 | 1.7 | 9.6 | 0.00 | 0.00 | 0.00 | 52 | 1005.3 |
| 20260506120013 | 66 | 33 | 0.0 | 6.1 | 0.00 | 0.00 | 0.00 | 54 | 1005.5 |
| 20260506114511 | 66 | 68 | 0.0 | 2.6 | 0.00 | 0.00 | 0.00 | 54 | 1005.5 |
| 20260506113008 | 64 | 79 | 0.0 | 8.7 | 0.00 | 0.00 | 0.00 | 54 | 1005.9 |
| 20260506111504 | 64 | 75 | 0.9 | 3.5 | 0.00 | 0.00 | 0.00 | 56 | 1006.2 |
| 20260506110003 | 63 | 59 | 0.9 | 11.3 | 0.00 | 0.00 | 0.00 | 57 | 1006.3 |
| 20260506104504 | 63 | 82 | 0.9 | 10.4 | 0.00 | 0.00 | 0.00 | 56 | 1006.4 |
| 20260506103110 | 63 | 83 | 2.6 | 11.3 | 0.00 | 0.00 | 0.00 | 56 | 1006.5 |
| 20260506101559 | 63 | 73 | 0.9 | 11.3 | 0.00 | 0.00 | 0.00 | 56 | 1006.7 |
| 20260506100056 | 64 | 30 | 0.0 | 7.0 | 0.00 | 0.00 | 0.00 | 55 | 1006.8 |
| 20260506094552 | 62 | 20 | 0.0 | 5.2 | 0.00 | 0.00 | 0.00 | 57 | 1006.7 |
| 20260506093049 | 61 | 36 | 0.0 | 3.5 | 0.00 | 0.00 | 0.00 | 59 | 1006.7 |
| 20260506091549 | 61 | 37 | 0.0 | 12.2 | 0.00 | 0.00 | 0.00 | 58 | 1006.5 |
| 20260506090048 | 61 | 341 | 2.6 | 7.8 | 0.00 | 0.00 | 0.00 | 58 | 1006.7 |
| 20260506084544 | 60 | 47 | 0.9 | 5.2 | 0.00 | 0.00 | 0.00 | 58 | 1006.9 |
| 20260506083044 | 59 | 6 | 1.7 | 7.8 | 0.00 | 0.00 | 0.00 | 60 | 1007.0 |
| 20260506081539 | 59 | 69 | 0.0 | 7.0 | 0.00 | 0.00 | 0.00 | 61 | 1007.2 |
| 20260506073034 | 58 | 15 | 1.7 | 7.8 | 0.00 | 0.00 | 0.00 | 61 | 1007.5 |
| 20260506071528 | 57 | 33 | 0.9 | 5.2 | 0.00 | 0.00 | 0.00 | 62 | 1007.5 |
| 20260506061517 | 52 | 33 | 0.0 | 4.3 | 0.00 | 0.00 | 0.00 | 74 | 1007.8 |
| 20260506044500 | 48 | 50 | 0.0 | 1.7 | 0.00 | 0.00 | 0.00 | 86 | 1007.9 |
| 20260506043058 | 48 | 11 | 0.0 | 5.2 | 0.00 | 0.00 | 0.00 | 87 | 1008.0 |
| 20260506041555 | 48 | 345 | 0.0 | 1.7 | 0.00 | 0.00 | 0.00 | 88 | 1007.7 |
| 20260506040051 | 48 | 15 | 0.0 | 0.9 | 0.00 | 0.00 | 0.00 | 88 | 1007.6 |
| 20260506034551 | 48 | 349 | 0.0 | 0.0 | 0.00 | 0.00 | 0.00 | 88 | 1007.6 |
| 20260506033046 | 48 | 20 | 0.0 | 0.0 | 0.00 | 0.00 | 0.00 | 88 | 1007.7 |
| 20260506031549 | 48 | 348 | 0.0 | 0.0 | 0.00 | 0.00 | 0.00 | 88 | 1007.6 |
| 20260506030043 | 48 | 30 | 0.0 | 0.0 | 0.00 | 0.00 | 0.00 | 88 | 1007.5 |
| 20260506024545 | 48 | 20 | 0.0 | 0.0 | 0.00 | 0.00 | 0.00 | 87 | 1007.4 |
| 20260506023042 | 48 | 2 | 0.0 | 0.0 | 0.00 | 0.00 | 0.00 | 87 | 1007.5 |
| 20260506021552 | 48 | 41 | 0.0 | 0.0 | 0.00 | 0.00 | 0.00 | 87 | 1007.2 |
| 20260506020039 | 48 | 15 | 0.0 | 0.0 | 0.00 | 0.00 | 0.00 | 87 | 1007.1 |
| 20260506014539 | 48 | 15 | 0.0 | 0.0 | 0.00 | 0.00 | 0.00 | 87 | 1007.1 |
| 20260506013043 | 48 | 2 | 0.0 | 1.7 | 0.00 | 0.00 | 0.00 | 87 | 1007.0 |
| 20260506011544 | 48 | 2 | 0.0 | 0.0 | 0.00 | 0.00 | 0.00 | 87 | 1007.0 |
| 20260506010045 | 48 | 349 | 0.0 | 0.0 | 0.00 | 0.00 | 0.00 | 87 | 1007.3 |
| 20260506004534 | 48 | 360 | 0.0 | 2.6 | 0.00 | 0.00 | 0.00 | 87 | 1007.3 |
| 20260506003032 | 49 | 347 | 0.0 | 4.3 | 0.00 | 0.00 | 0.00 | 85 | 1007.0 |
| 20260506001529 | 50 | 4 | 0.0 | 0.0 | 0.00 | 0.00 | 0.00 | 84 | 1006.7 |
| 20260506000028 | 50 | 357 | 0.0 | 1.7 | 0.00 | 0.00 | 0.00 | 82 | 1006.9 |
| 20260505234533 | 50 | 360 | 0.0 | 0.0 | 0.00 | 0.00 | 0.00 | 83 | 1006.8 |
| 20260505233028 | 51 | 343 | 0.0 | 0.0 | 0.00 | 0.00 | 0.00 | 84 | 1006.9 |
| 20260505231529 | 51 | 337 | 0.0 | 0.0 | 0.00 | 0.00 | 0.00 | 84 | 1006.7 |
| 20260505230025 | 51 | 329 | 0.0 | 0.0 | 0.00 | 0.00 | 0.00 | 84 | 1006.9 |
| 20260505224529 | 51 | 351 | 0.0 | 0.0 | 0.00 | 0.00 | 0.00 | 83 | 1006.6 |
| 20260505223020 | 52 | 34 | 0.0 | 0.0 | 0.00 | 0.00 | 0.00 | 81 | 1006.4 |
| 20260505221517 | 53 | 354 | 0.0 | 0.0 | 0.00 | 0.00 | 0.00 | 78 | 1006.6 |
| 20260505220014 | 53 | 329 | 0.0 | 0.0 | 0.00 | 0.00 | 0.00 | 77 | 1006.9 |
| 20260505214514 | 53 | 352 | 0.0 | 0.0 | 0.00 | 0.00 | 0.00 | 78 | 1006.5 |
| 20260505213017 | 53 | 335 | 0.0 | 0.0 | 0.00 | 0.00 | 0.00 | 78 | 1006.7 |
| 20260505211530 | 53 | 10 | 0.0 | 0.0 | 0.00 | 0.00 | 0.00 | 78 | 1006.7 |
| 20260505210011 | 53 | 335 | 0.0 | 0.0 | 0.00 | 0.00 | 0.00 | 79 | 1006.6 |
| 20260505204509 | 53 | 315 | 0.0 | 6.1 | 0.00 | 0.00 | 0.00 | 80 | 1006.6 |
| 20260505203008 | 54 | 301 | 0.0 | 4.3 | 0.00 | 0.00 | 0.00 | 80 | 1006.5 |
| 20260505201508 | 55 | 44 | 0.0 | 2.6 | 0.00 | 0.00 | 0.00 | 80 | 1004.8 |
| 20260505200005 | 56 | 25 | 0.0 | 7.0 | 0.00 | 0.00 | 0.00 | 79 | 1004.8 |
| 20260505194506 | 58 | 283 | 0.0 | 3.5 | 0.00 | 0.00 | 0.00 | 75 | 1007.5 |
| 20260505193003 | 59 | 309 | 0.9 | 3.5 | 0.00 | 0.00 | 0.00 | 71 | 1006.8 |
| 20260505191503 | 59 | 334 | 0.0 | 0.0 | 0.00 | 0.00 | 0.00 | 70 | 1005.8 |
| 20260505190008 | 60 | 334 | 0.0 | 0.0 | 0.00 | 0.00 | 0.00 | 69 | 1005.7 |
| 20260505184502 | 60 | 334 | 0.0 | 0.0 | 0.00 | 0.00 | 0.00 | 69 | 1005.8 |
| 20260505183002 | 61 | 334 | 0.0 | 2.6 | 0.00 | 0.00 | 0.00 | 70 | 1005.8 |
| 20260505181502 | 61 | 312 | 0.0 | 0.0 | 0.00 | 0.00 | 0.00 | 69 | 1005.8 |
| 20260505180110 | 62 | 311 | 0.0 | 0.0 | 0.00 | 0.00 | 0.00 | 68 | 1005.7 |
| 20260505174559 | 62 | 311 | 0.0 | 0.0 | 0.00 | 0.00 | 0.00 | 67 | 1005.9 |
| 20260505173059 | 63 | 311 | 0.0 | 0.0 | 0.00 | 0.00 | 0.00 | 67 | 1006.1 |
| 20260505171559 | 63 | 311 | 0.0 | 0.0 | 0.00 | 0.00 | 0.00 | 64 | 1006.1 |
| 20260505170058 | 64 | 312 | 0.0 | 0.0 | 0.00 | 0.00 | 0.00 | 62 | 1005.9 |
| 20260505164602 | 64 | 312 | 0.0 | 0.0 | 0.00 | 0.00 | 0.00 | 62 | 1005.9 |
| 20260505163057 | 64 | 316 | 0.0 | 0.0 | 0.00 | 0.00 | 0.00 | 61 | 1005.9 |
| 20260505161557 | 64 | 316 | 0.0 | 0.0 | 0.00 | 0.00 | 0.00 | 61 | 1005.8 |
| 20260505153055 | 64 | 289 | 0.0 | 0.0 | 0.00 | 0.00 | 0.00 | 67 | 1006.1 |
| 20260505151553 | 63 | 321 | 0.0 | 0.0 | 0.00 | 0.00 | 0.00 | 71 | 1006.0 |
| 20260505124543 | 71 | 242 | 5.2 | 12.2 | 0.00 | 0.00 | 0.00 | 45 | 1006.6 |